,,PA_Meas_PMT16A,,PR_Meas_QMR101_102,,RH_Meas_QMH101,,SR_Meas_QMS101,,TA_Meas_QMH101,,GenWind,,GenWind,
time,status,PA,status,PR,status,RH,status,SR,status,TA,status,DirAvg,status,SpdAvg,
2013-04-04, 07:13:04,VALID,917.707,VALID,0,VALID,97.0842,VALID,92.9366,VALID,20.504,VALID,15,VALID,0,
2013-04-04, 07:14:04,VALID,916.689,VALID,0,VALID,97.1452,VALID,102.606,VALID,20.4845,VALID,356,VALID,0,
2013-04-04, 07:15:04,VALID,918.638,VALID,0,VALID,97.1071,VALID,91.0027,VALID,20.4845,VALID,318,VALID,0,
2013-04-04, 07:16:04,INVALID,916.485,VALID,0,VALID,97.1147,VALID,79.2916,VALID,20.4439,VALID,9,VALID,0,
2013-04-04, 07:17:04,VALID,918.211,VALID,0,VALID,97.1223,VALID,68.5475,VALID,20.5024,VALID,11,VALID,0,
2013-04-04, 07:28:04,VALID,915.22,VALID,0,VALID,97.1147,VALID,70.6963,VALID,20.5219,VALID,19,VALID,0,
2013-04-04, 07:29:04,VALID,914.439,VALID,0,VALID,97.1299,VALID,71.8781,VALID,20.5609,VALID,24,VALID,0,
2013-04-04, 07:30:04,INVALID,917.208,VALID,0,VALID,97.1223,VALID,79.2916,VALID,20.5414,VALID,336,VALID,0,
2013-04-04, 07:31:04,VALID,917.935,VALID,0,VALID,97.1147,VALID,92.7217,VALID,20.5414,VALID,342,VALID,0,
2013-04-04, 07:32:04,VALID,916.733,VALID,0,VALID,97.1299,VALID,129.681,VALID,20.5804,VALID,19,VALID,0,
2013-04-04, 07:33:04,VALID,916.582,VALID,0,VALID,97.1299,VALID,134.301,VALID,20.6194,VALID,33,VALID,0,
2013-04-04, 07:34:04,VALID,916.61,VALID,0,VALID,97.1147,VALID,116.359,VALID,20.6585,VALID,8,VALID,0,
2013-04-04, 07:35:04,VALID,916.526,VALID,0,VALID,97.0918,VALID,110.235,VALID,20.678,VALID,2,VALID,0,
2013-04-04, 07:36:04,VALID,916.406,VALID,0,VALID,97.1071,VALID,113.673,VALID,20.678,VALID,5,VALID,0,
2013-04-04, 07:37:04,VALID,916.416,VALID,0,VALID,97.0994,VALID,134.839,VALID,20.6764,VALID,23,VALID,0,
2013-04-04, 07:38:04,VALID,916.461,VALID,0,VALID,97.1071,VALID,142.252,VALID,20.7365,VALID,31,VALID,0,
2013-04-04, 07:39:04,VALID,916.54,VALID,0,VALID,97.1071,VALID,132.905,VALID,20.8145,VALID,22,VALID,0,
2013-04-04, 07:40:04,VALID,916.57,VALID,0,VALID,97.0918,VALID,133.979,VALID,20.8161,VALID,9,VALID,0,
2013-04-04, 07:41:04,VALID,916.553,VALID,0,VALID,97.069,VALID,157.079,VALID,20.7934,VALID,16,VALID,0,
2013-04-04, 07:42:04,VALID,916.555,VALID,0,VALID,97.0994,VALID,203.494,VALID,20.873,VALID,25,VALID,0,
2013-04-04, 07:43:04,VALID,916.599,VALID,0,VALID,97.069,VALID,208.866,VALID,20.873,VALID,29,VALID,0,
2013-04-04, 07:44:04,VALID,916.632,VALID,0,VALID,97.069,VALID,167.501,VALID,21.0307,VALID,23,VALID,0,
2013-04-04, 07:45:04,VALID,916.6,VALID,0,VALID,97.0537,VALID,144.186,VALID,21.0486,VALID,3,VALID,0,
2013-04-04, 07:46:04,VALID,916.562,VALID,0,VALID,97.0537,VALID,151.599,VALID,21.0876,VALID,19,VALID,0,
2013-04-04, 07:47:04,VALID,916.687,VALID,0,VALID,97.0308,VALID,171.584,VALID,21.1266,VALID,25,VALID,0,
2013-04-04, 07:48:04,VALID,916.542,VALID,0,VALID,97.0385,VALID,165.674,VALID,21.2047,VALID,27,VALID,0,
2013-04-04, 07:49:04,VALID,916.537,VALID,0,VALID,97.0308,VALID,157.509,VALID,21.2047,VALID,11,VALID,0,
2013-04-04, 07:50:04,VALID,916.569,VALID,0,VALID,97.008,VALID,177.493,VALID,21.1657,VALID,34,VALID,0,
2013-04-04, 07:51:04,VALID,916.698,VALID,0,VALID,96.9622,VALID,209.403,VALID,21.2031,VALID,29,VALID,0,
2013-04-04, 07:52:04,VALID,916.732,VALID,0,VALID,96.947,VALID,181.361,VALID,21.2421,VALID,3,VALID,0,
2013-04-04, 07:53:04,VALID,916.638,VALID,0,VALID,96.9165,VALID,162.129,VALID,21.164,VALID,344,VALID,0,
2013-04-04, 07:54:04,VALID,916.692,VALID,0,VALID,96.8707,VALID,163.848,VALID,21.1055,VALID,30,VALID,0,
2013-04-04, 07:55:04,VALID,916.613,VALID,0,VALID,96.8326,VALID,178.89,VALID,21.1071,VALID,36,VALID,0,
2013-04-04, 07:56:04,VALID,916.666,VALID,0,VALID,96.825,VALID,164.6,VALID,21.086,VALID,1,VALID,0,
2013-04-04, 07:57:04,VALID,916.656,VALID,0,VALID,96.7945,VALID,172.228,VALID,21.0275,VALID,5,VALID,0,
2013-04-04, 07:58:04,VALID,916.615,VALID,0,VALID,96.8021,VALID,173.517,VALID,21.086,VALID,22,VALID,0,
2013-04-04, 07:59:04,VALID,916.749,VALID,0,VALID,96.8098,VALID,177.063,VALID,21.1461,VALID,30,VALID,0,
2013-04-04, 08:00:04,VALID,916.566,VALID,0,VALID,96.7945,VALID,156.434,VALID,21.2437,VALID,12,VALID,0,
2013-04-04, 08:01:04,VALID,916.575,VALID,0,VALID,96.7564,VALID,146.335,VALID,21.125,VALID,354,VALID,0,
2013-04-04, 08:02:04,VALID,916.703,VALID,0,VALID,96.7335,VALID,150.847,VALID,21.1836,VALID,20,VALID,0,
2013-04-04, 08:03:04,VALID,916.649,VALID,0,VALID,96.7107,VALID,175.237,VALID,21.2437,VALID,13,VALID,0,
2013-04-04, 08:04:04,VALID,916.721,VALID,0,VALID,96.6725,VALID,175.022,VALID,21.1836,VALID,12,VALID,0,
2013-04-04, 08:05:04,VALID,916.698,VALID,0,VALID,96.6344,VALID,165.567,VALID,21.2031,VALID,39,VALID,0,
2013-04-04, 08:06:04,VALID,916.736,VALID,0,VALID,96.5887,VALID,159.12,VALID,21.2226,VALID,40,VALID,0,
2013-04-04, 08:07:04,VALID,916.723,VALID,0,VALID,96.5582,VALID,160.41,VALID,21.3022,VALID,7,VALID,0,
2013-04-04, 08:08:04,VALID,916.865,VALID,0,VALID,96.5277,VALID,167.393,VALID,21.2811,VALID,16,VALID,0,
2013-04-04, 08:09:04,VALID,916.705,VALID,0,VALID,96.4515,VALID,148.806,VALID,21.2616,VALID,338,VALID,0,
2013-04-04, 08:10:04,VALID,916.538,VALID,0,VALID,96.3752,VALID,142.037,VALID,21.2421,VALID,21,VALID,0,
2013-04-04, 08:11:04,VALID,916.82,VALID,0,VALID,96.2609,VALID,118.078,VALID,21.1445,VALID,33,VALID,0,
2013-04-04, 08:12:04,VALID,916.87,VALID,0,VALID,96.2304,VALID,105.185,VALID,21.1836,VALID,19,VALID,0,
2013-04-04, 08:13:04,VALID,916.938,VALID,0,VALID,96.1618,VALID,98.3087,VALID,21.1445,VALID,21,VALID,0,
2013-04-04, 08:18:04,VALID,916.904,VALID,0,VALID,96.0398,VALID,93.1515,VALID,21.1282,VALID,338,VALID,0,
2013-04-04, 08:19:04,VALID,916.944,VALID,0,VALID,95.9407,VALID,108.086,VALID,21.1087,VALID,343,VALID,0,
2013-04-04, 08:20:04,VALID,917.036,VALID,0,VALID,95.8263,VALID,133.12,VALID,21.0876,VALID,30,VALID,0,
2013-04-04, 08:21:04,VALID,917.01,VALID,0,VALID,95.7806,VALID,145.583,VALID,21.0681,VALID,350,VALID,0,
2013-04-04, 08:22:04,VALID,916.921,VALID,0,VALID,95.7425,VALID,165.137,VALID,21.086,VALID,30,VALID,0,
2013-04-04, 08:23:04,VALID,916.921,VALID,0,VALID,95.7882,VALID,215.42,VALID,21.1445,VALID,12,VALID,0,
2013-04-04, 08:24:04,VALID,916.953,VALID,0,VALID,95.8035,VALID,255.388,VALID,21.2031,VALID,6,VALID,0,
2013-04-04, 08:25:04,VALID,916.845,VALID,0,VALID,95.8263,VALID,204.675,VALID,21.3412,VALID,351,VALID,0,
2013-04-04, 08:26:04,VALID,917.005,VALID,0,VALID,95.9331,VALID,148.161,VALID,21.4973,VALID,27,VALID,0,
2013-04-04, 08:27:04,VALID,917.077,VALID,0,VALID,95.7577,VALID,139.673,VALID,21.4567,VALID,30,VALID,0,
2013-04-04, 08:28:04,VALID,916.918,VALID,0,VALID,95.3613,VALID,155.145,VALID,21.5152,VALID,34,VALID,0,
2013-04-04, 08:29:04,VALID,917.116,VALID,0,VALID,95.5824,VALID,186.625,VALID,21.6128,VALID,355,VALID,0,
2013-04-04, 08:30:04,VALID,917.029,VALID,0,VALID,95.2546,VALID,191.245,VALID,21.6323,VALID,17,VALID,0,
2013-04-04, 08:31:04,VALID,917.059,VALID,0,VALID,94.6523,VALID,177.278,VALID,21.5737,VALID,12,VALID,0,
2013-04-04, 08:32:04,VALID,917.007,VALID,0,VALID,94.233,VALID,167.931,VALID,21.5152,VALID,340,VALID,0,
2013-04-04, 08:33:04,VALID,917.128,VALID,0,VALID,94.0653,VALID,198.014,VALID,21.4583,VALID,27,VALID,0,
2013-04-04, 08:34:04,VALID,916.985,VALID,0,VALID,94.1644,VALID,197.262,VALID,21.4778,VALID,34,VALID,0,
2013-04-04, 08:35:04,VALID,917.098,VALID,0,VALID,94.4617,VALID,188.237,VALID,21.5575,VALID,356,VALID,0,
2013-04-04, 08:36:04,VALID,917.118,VALID,0,VALID,93.9357,VALID,212.841,VALID,21.4583,VALID,284,VALID,0,
2013-04-04, 08:37:04,VALID,916.986,VALID,0,VALID,94.3017,VALID,259.363,VALID,21.5575,VALID,29,VALID,0,
2013-04-04, 08:38:04,VALID,917.213,VALID,0,VALID,94.3398,VALID,216.924,VALID,21.5949,VALID,15,VALID,0,
2013-04-04, 08:39:04,VALID,917.056,VALID,0,VALID,93.7985,VALID,192.535,VALID,21.5363,VALID,21,VALID,0,
2013-04-04, 08:40:04,VALID,917.318,VALID,0,VALID,93.8747,VALID,189.096,VALID,21.5575,VALID,13,VALID,0,
2013-04-04, 08:41:04,VALID,917.534,VALID,0,VALID,94.1034,VALID,158.476,VALID,21.577,VALID,14,VALID,0,
2013-04-04, 08:42:04,VALID,917.306,VALID,0,VALID,94.0272,VALID,144.293,VALID,21.5754,INVALID,360,VALID,0,
2013-04-04, 08:43:04,VALID,917.394,VALID,0,VALID,94.2178,VALID,149.021,VALID,21.5949,VALID,36,VALID,0,
2013-04-04, 08:44:04,VALID,917.426,VALID,0,VALID,94.2026,VALID,152.352,VALID,21.5949,VALID,13,VALID,0,
2013-04-04, 08:45:04,VALID,917.193,VALID,0,VALID,94.3093,VALID,162.021,VALID,21.5949,VALID,23,VALID,0,
2013-04-04, 08:46:04,VALID,917.228,VALID,0,VALID,94.2102,VALID,126.566,VALID,21.5754,VALID,337,VALID,0,
2013-04-04, 08:47:04,VALID,917.371,VALID,0,VALID,94.2178,VALID,119.045,VALID,21.5575,VALID,347,VALID,0,
2013-04-04, 08:48:04,VALID,917.454,VALID,0,VALID,93.9586,VALID,135.806,VALID,21.4794,VALID,18,VALID,0,
2013-04-04, 08:49:04,VALID,917.453,VALID,0,VALID,93.8747,VALID,138.921,VALID,21.4193,VALID,5,VALID,0,
2013-04-04, 08:50:04,VALID,917.459,VALID,0,VALID,94.0501,VALID,154.823,VALID,21.3608,VALID,12,VALID,0,
2013-04-04, 08:51:04,VALID,917.297,VALID,0,VALID,94.2102,VALID,140.211,VALID,21.3803,VALID,346,VALID,0,
2013-04-04, 08:52:04,VALID,917.392,VALID,0,VALID,94.1644,VALID,120.764,VALID,21.3022,VALID,297,VALID,0,
2013-04-04, 08:53:04,VALID,917.437,VALID,0,VALID,94.7819,VALID,140.533,VALID,21.3786,VALID,23,VALID,0,
2013-04-04, 08:54:04,VALID,917.411,VALID,0,VALID,94.3703,VALID,129.037,VALID,21.3217,VALID,342,VALID,0,
2013-04-04, 08:55:04,VALID,916.016,VALID,0,VALID,94.7209,VALID,134.516,VALID,21.3624,VALID,307,VALID,0,
2013-04-04, 08:56:04,VALID,917.504,VALID,0,VALID,94.942,VALID,159.013,VALID,21.3608,VALID,42,VALID,0,
2013-04-04, 08:57:04,VALID,917.414,VALID,0,VALID,94.6752,VALID,164.6,VALID,21.3624,VALID,349,VALID,0,
2013-04-04, 08:58:04,VALID,917.374,VALID,0,VALID,94.8048,VALID,155.145,VALID,21.3803,VALID,10,VALID,0,
2013-04-04, 08:59:04,VALID,917.539,VALID,0,VALID,94.7591,VALID,145.153,VALID,21.3608,VALID,18,VALID,0,
2013-04-04, 09:00:04,VALID,917.623,VALID,0,VALID,95.003,VALID,153.211,VALID,21.3998,VALID,22,VALID,0,
2013-04-04, 09:01:04,VALID,917.498,VALID,0,VALID,95.2012,VALID,148.913,VALID,21.4583,VALID,21,VALID,0,
2013-04-04, 09:02:04,VALID,917.542,VALID,0,VALID,94.6447,VALID,173.195,VALID,21.3998,VALID,21,VALID,0,
2013-04-04, 09:03:04,VALID,917.378,VALID,0,VALID,95.064,VALID,217.568,VALID,21.4193,VALID,26,VALID,0,
2013-04-04, 09:04:04,VALID,917.423,VALID,0,VALID,94.7133,VALID,278.058,VALID,21.4193,VALID,287,VALID,0,
2013-04-04, 09:05:04,VALID,917.288,VALID,0,VALID,94.9573,VALID,261.512,VALID,21.4388,VALID,42,VALID,0,
2013-04-04, 09:06:04,VALID,917.382,VALID,0,VALID,95.003,VALID,193.072,VALID,21.4778,VALID,180,VALID,0,
2013-04-04, 09:07:04,VALID,917.361,VALID,0,VALID,94.7057,VALID,167.608,VALID,21.4778,VALID,54,VALID,0,
2013-04-04, 09:08:04,VALID,917.321,VALID,0,VALID,94.9115,VALID,191.568,VALID,21.5168,VALID,97,VALID,0,
2013-04-04, 09:09:04,VALID,917.399,VALID,0,VALID,94.6447,VALID,249.156,VALID,21.538,VALID,350,VALID,0,
2013-04-04, 09:10:04,VALID,917.145,VALID,0,VALID,94.416,VALID,231.321,VALID,21.4193,VALID,38,VALID,0,
2013-04-04, 09:11:04,VALID,917.5,VALID,0,VALID,94.881,VALID,240.883,VALID,21.4973,VALID,29,VALID,0,
2013-04-04, 09:12:04,VALID,917.599,VALID,0,VALID,94.7896,VALID,230.354,VALID,21.5559,VALID,359,VALID,0,
2013-04-04, 09:13:04,VALID,917.539,VALID,0,VALID,94.6066,VALID,254.528,VALID,21.5168,VALID,185,VALID,0,
2013-04-04, 09:14:04,VALID,917.433,VALID,0,VALID,94.8505,VALID,214.99,VALID,21.5559,VALID,150,VALID,0,
2013-04-04, 09:15:04,VALID,917.388,VALID,0,VALID,94.9954,VALID,204.031,VALID,21.6534,VALID,48,VALID,0,
2013-04-04, 09:16:04,VALID,917.593,VALID,0,VALID,94.4084,VALID,210.155,VALID,21.6144,VALID,268,VALID,0,
2013-04-04, 09:17:04,VALID,917.592,VALID,0,VALID,94.1492,VALID,228.742,VALID,21.4973,VALID,21,VALID,0,
2013-04-04, 09:18:04,VALID,917.635,VALID,0,VALID,94.416,VALID,264.95,VALID,21.5347,VALID,12,VALID,0,
2013-04-04, 09:19:04,VALID,917.573,VALID,0,VALID,94.6828,VALID,227.345,VALID,21.5347,VALID,16,VALID,0,
2013-04-04, 09:20:04,VALID,917.478,VALID,0,VALID,94.3093,VALID,200.27,VALID,21.5347,VALID,14,VALID,0,
2013-04-04, 09:21:04,VALID,918.098,VALID,0,VALID,94.5151,VALID,242.172,VALID,21.4957,VALID,8,VALID,0,
2013-04-04, 09:22:04,VALID,917.216,VALID,0,VALID,94.5304,VALID,273.653,VALID,21.5347,VALID,20,VALID,0,
2013-04-04, 09:23:04,VALID,917.944,VALID,0,VALID,94.538,VALID,273.867,VALID,21.5542,VALID,149,VALID,0,
2013-04-04, 09:24:04,VALID,917.673,VALID,0,VALID,94.5151,VALID,296.43,VALID,21.6128,VALID,4,VALID,0,
2013-04-04, 09:25:04,VALID,917.693,VALID,0,VALID,94.0958,VALID,335.861,VALID,21.5754,VALID,14,VALID,0,
2013-04-04, 09:26:04,VALID,917.721,VALID,0,VALID,94.2026,VALID,327.803,VALID,21.6339,VALID,46,VALID,0,
2013-04-04, 09:27:04,VALID,917.648,VALID,0,VALID,94.477,VALID,278.702,VALID,21.7103,VALID,163,VALID,0,
2013-04-04, 09:28:04,VALID,917.403,VALID,0,VALID,93.6003,VALID,288.05,VALID,21.6323,VALID,345,VALID,0,
2013-04-04, 09:29:04,VALID,917.677,VALID,0,VALID,93.7604,VALID,239.486,VALID,21.6908,VALID,340,VALID,0,
2013-04-04, 09:30:04,VALID,917.44,VALID,0,VALID,93.9662,VALID,272.793,VALID,21.7493,VALID,2,VALID,0,
2013-04-04, 09:31:04,VALID,917.55,VALID,0,VALID,93.6994,VALID,262.909,VALID,21.7493,VALID,183,VALID,0,
2013-04-04, 09:32:04,VALID,918.087,VALID,0,VALID,92.9599,VALID,245.718,VALID,21.6908,VALID,58,VALID,0,
2013-04-04, 09:33:04,VALID,917.646,VALID,0,VALID,92.9828,VALID,267.314,VALID,21.7315,VALID,310,VALID,0,
2013-04-04, 09:34:04,VALID,917.811,VALID,0,VALID,92.8837,VALID,328.555,VALID,21.712,VALID,337,VALID,0,
2013-04-04, 09:35:04,VALID,917.769,VALID,0,VALID,93.3182,VALID,312.331,VALID,21.7705,VALID,45,VALID,0,
2013-04-04, 09:36:04,VALID,917.702,VALID,0,VALID,93.7299,VALID,351.547,VALID,21.8095,VALID,318,VALID,0,
2013-04-04, 09:37:04,VALID,917.634,VALID,0,VALID,92.7846,VALID,303.736,VALID,21.7315,VALID,238,VALID,0,
2013-04-04, 09:38:04,VALID,917.57,VALID,0,VALID,93.2572,VALID,286.223,VALID,21.8307,VALID,36,VALID,0,
2013-04-04, 09:39:04,VALID,917.589,VALID,0,VALID,93.8138,VALID,324.365,VALID,21.9071,VALID,300,VALID,0,
2013-04-04, 09:40:04,VALID,917.537,VALID,0,VALID,93.242,VALID,317.274,VALID,21.8876,VALID,216,VALID,0,
2013-04-04, 09:41:04,VALID,917.569,VALID,0,VALID,92.7846,VALID,276.876,VALID,21.8095,VALID,314,VALID,0,
2013-04-04, 09:42:04,VALID,917.501,VALID,0,VALID,93.4021,VALID,283.645,VALID,21.9461,VALID,34,VALID,0,
2013-04-04, 09:43:04,VALID,917.497,VALID,0,VALID,93.5698,VALID,333.068,VALID,21.9461,VALID,18,VALID,0,
2013-04-04, 09:44:04,VALID,918.741,VALID,0,VALID,93.2572,VALID,326.621,VALID,21.8876,VALID,358,VALID,0,
2013-04-04, 09:45:04,VALID,917.857,VALID,0,VALID,93.181,VALID,271.719,VALID,21.9071,VALID,35,VALID,0,
2013-04-04, 09:46:04,VALID,917.603,VALID,0,VALID,93.0667,VALID,253.346,VALID,21.8859,VALID,348,VALID,0,
2013-04-04, 09:47:04,VALID,917.611,VALID,0,VALID,93.1658,VALID,254.206,VALID,21.9071,VALID,42,VALID,0,
2013-04-04, 09:48:04,VALID,917.642,VALID,0,VALID,92.7541,VALID,301.265,VALID,21.9071,VALID,3,VALID,0,
2013-04-04, 09:49:04,VALID,917.606,VALID,0,VALID,93.0285,VALID,325.547,VALID,21.9266,VALID,27,VALID,0,
2013-04-04, 09:50:04,VALID,917.591,VALID,0,VALID,93.425,VALID,333.068,VALID,21.9851,VALID,301,VALID,0,
2013-04-04, 09:51:04,VALID,917.581,VALID,0,VALID,93.2572,VALID,352.514,VALID,21.9851,VALID,37,VALID,0,
2013-04-04, 09:52:04,VALID,917.598,VALID,0,VALID,92.2357,VALID,302.877,VALID,21.8876,VALID,9,VALID,0,
2013-04-04, 09:53:04,VALID,917.605,VALID,0,VALID,92.2205,VALID,324.365,VALID,21.8079,VALID,16,VALID,0,
2013-04-04, 09:54:04,VALID,917.648,VALID,0,VALID,93.2344,VALID,342.952,VALID,21.8876,VALID,29,VALID,0,
2013-04-04, 09:55:04,VALID,917.683,VALID,0,VALID,93.4173,VALID,380.986,VALID,21.8681,VALID,344,VALID,0,
2013-04-04, 09:56:04,VALID,917.661,VALID,0,VALID,93.829,VALID,395.921,VALID,21.9266,VALID,43,VALID,0,
2013-04-04, 09:57:04,VALID,917.678,VALID,0,VALID,93.8747,VALID,336.291,VALID,21.964,VALID,9,VALID,0,
2013-04-04, 09:58:04,VALID,917.677,VALID,0,VALID,93.3411,VALID,331.886,VALID,21.9266,VALID,14,VALID,0,
2013-04-04, 09:59:04,VALID,917.66,VALID,0,VALID,92.5864,VALID,309.216,VALID,21.829,VALID,2,VALID,0,
2013-04-04, 10:00:04,VALID,917.652,VALID,0,VALID,92.9142,VALID,295.785,VALID,21.8095,VALID,39,VALID,0,
2013-04-04, 10:01:04,VALID,917.65,VALID,0,VALID,93.7223,VALID,266.991,VALID,21.8681,VALID,31,VALID,0,
2013-04-04, 10:02:04,VALID,917.672,VALID,0,VALID,93.951,VALID,286.868,VALID,21.8876,VALID,32,VALID,0,
2013-04-04, 10:03:04,VALID,917.67,VALID,0,VALID,93.2725,VALID,278.702,VALID,21.8485,VALID,7,VALID,0,
2013-04-04, 10:04:04,VALID,917.674,VALID,0,VALID,93.6003,VALID,247.115,VALID,21.8876,VALID,28,VALID,0,
2013-04-04, 10:05:04,VALID,917.688,VALID,0,VALID,93.242,VALID,253.991,VALID,21.8079,VALID,292,VALID,0,
2013-04-04, 10:06:04,VALID,917.698,VALID,0,VALID,93.6918,VALID,266.239,VALID,21.8681,VALID,31,VALID,0,
2013-04-04, 10:07:04,VALID,917.673,VALID,0,VALID,94.1568,VALID,273.33,VALID,21.9656,VALID,69,VALID,0,
2013-04-04, 10:08:04,VALID,917.708,VALID,0,VALID,93.5851,VALID,253.454,VALID,21.9266,VALID,52,VALID,0,
2013-04-04, 10:09:04,VALID,917.69,VALID,0,VALID,92.5788,VALID,223.8,VALID,21.8485,VALID,33,VALID,0,
2013-04-04, 10:10:04,VALID,917.714,VALID,0,VALID,93.2954,VALID,202.097,VALID,21.8876,VALID,356,VALID,0,
2013-04-04, 10:11:04,VALID,917.679,VALID,0,VALID,92.9218,VALID,172.121,VALID,21.79,VALID,6,VALID,0,
2013-04-04, 10:12:04,VALID,917.75,VALID,0,VALID,92.6321,VALID,174.592,VALID,21.6729,VALID,10,VALID,0,
2013-04-04, 10:13:04,VALID,917.758,VALID,0,VALID,93.0438,VALID,219.502,VALID,21.6339,VALID,326,VALID,0,
2013-04-04, 10:14:04,VALID,917.74,VALID,0,VALID,92.9904,VALID,221.544,VALID,21.5363,VALID,244,VALID,0,
2013-04-04, 10:15:04,VALID,917.691,VALID,0,VALID,93.0972,VALID,220.147,VALID,21.4778,VALID,20,VALID,0,
2013-04-04, 10:16:04,VALID,917.708,VALID,0.2,VALID,93.4478,VALID,216.064,VALID,21.4778,VALID,5,VALID,0,
2013-04-04, 10:17:04,VALID,917.74,VALID,0,VALID,94.0653,VALID,219.825,VALID,21.538,VALID,44,VALID,0,
2013-04-04, 10:18:04,VALID,917.723,VALID,0,VALID,94.3779,VALID,229.172,VALID,21.5559,VALID,46,VALID,0,
2013-04-04, 10:19:04,VALID,917.731,VALID,0,VALID,94.8353,VALID,233.255,VALID,21.6729,VALID,13,VALID,0,
2013-04-04, 10:20:04,VALID,917.727,VALID,0.2,VALID,94.6295,VALID,249.049,VALID,21.6339,VALID,24,VALID,0,
2013-04-04, 10:21:04,VALID,917.743,VALID,0,VALID,95.1097,VALID,245.933,VALID,21.7136,VALID,22,VALID,0,
2013-04-04, 10:22:04,VALID,917.736,VALID,0,VALID,94.9268,VALID,263.875,VALID,21.7721,VALID,33,VALID,0,
2013-04-04, 10:23:04,VALID,917.728,VALID,0,VALID,94.9573,VALID,284.289,VALID,21.7705,VALID,5,VALID,0,
2013-04-04, 10:24:04,VALID,917.728,VALID,0,VALID,94.8429,VALID,284.074,VALID,21.829,VALID,26,VALID,0,
2013-04-04, 10:25:04,VALID,917.711,VALID,0,VALID,94.1797,VALID,297.182,VALID,21.7705,VALID,38,VALID,0,
2013-04-04, 10:26:04,VALID,917.69,VALID,0,VALID,94.5609,VALID,308.571,VALID,21.8697,VALID,55,VALID,0,
2013-04-04, 10:27:04,VALID,917.716,VALID,0,VALID,94.7514,VALID,302.769,VALID,21.9071,VALID,33,VALID,0,
2013-04-04, 10:28:04,VALID,917.707,VALID,0,VALID,94.7514,VALID,327.481,VALID,22.0047,VALID,237,VALID,0,
2013-04-04, 10:29:04,VALID,917.704,VALID,0,VALID,94.5532,VALID,339.836,VALID,22.0063,VALID,65,VALID,0,
2013-04-04, 10:30:04,VALID,917.661,VALID,0,VALID,93.8747,VALID,370.565,VALID,21.9071,VALID,13,VALID,0,
2013-04-04, 10:31:04,VALID,917.682,VALID,0,VALID,94.3169,VALID,415.26,VALID,22.0063,VALID,25,VALID,0,
2013-04-04, 10:32:04,VALID,917.622,VALID,0,VALID,94.3093,VALID,478.221,VALID,22.0844,VALID,314,VALID,0,
2013-04-04, 10:33:04,VALID,917.671,VALID,0,VALID,94.0272,VALID,511.527,VALID,22.0844,VALID,351,VALID,0,
2013-04-04, 10:34:04,VALID,917.678,VALID,0,VALID,93.6537,VALID,513.891,VALID,22.1039,VALID,8,VALID,0,
2013-04-04, 10:35:04,VALID,917.662,VALID,0,VALID,92.7998,VALID,497.238,VALID,22.0258,VALID,17,VALID,0,
2013-04-04, 10:36:04,VALID,917.639,VALID,0,VALID,92.9676,VALID,478.543,VALID,22.0258,VALID,304,VALID,0,
2013-04-04, 10:37:04,VALID,917.637,VALID,0,VALID,93.4021,VALID,505.511,VALID,22.0844,VALID,23,VALID,0,
2013-04-04, 10:38:04,VALID,917.655,VALID,0,VALID,92.2891,VALID,527.966,VALID,21.9868,VALID,305,VALID,0,
2013-04-04, 10:39:04,VALID,917.609,VALID,0,VALID,92.4873,VALID,498.312,VALID,22.0063,VALID,315,VALID,0,
2013-04-04, 10:40:04,VALID,917.569,VALID,0,VALID,92.9828,VALID,447.278,VALID,22.0063,VALID,320,VALID,0,
2013-04-04, 10:41:04,VALID,917.499,VALID,0,VALID,93.1429,VALID,428.153,VALID,21.9868,VALID,15,VALID,0,
2013-04-04, 10:42:04,VALID,917.539,VALID,0,VALID,93.6155,VALID,422.136,VALID,22.0649,VALID,40,VALID,0,
2013-04-04, 10:43:04,VALID,917.556,VALID,0,VALID,93.768,VALID,403.979,VALID,22.1234,VALID,26,VALID,0,
2013-04-04, 10:44:04,VALID,917.579,VALID,0,VALID,94.2483,VALID,531.511,VALID,22.2779,VALID,331,VALID,0,
2013-04-04, 10:45:04,VALID,917.521,VALID,0,VALID,93.4631,VALID,440.831,VALID,22.2974,VALID,257,VALID,0,
2013-04-04, 10:46:04,VALID,917.529,VALID,0,VALID,93.7223,VALID,355.093,VALID,22.4128,VALID,339,VALID,0,
2013-04-04, 10:47:04,VALID,917.533,VALID,0,VALID,91.7859,VALID,321.786,VALID,22.2957,VALID,343,VALID,0,
2013-04-04, 10:48:04,VALID,917.511,VALID,0,VALID,91.6716,VALID,265.702,VALID,22.2371,VALID,6,VALID,0,
2013-04-04, 10:49:04,VALID,917.519,VALID,0,VALID,91.5496,VALID,265.702,VALID,22.1608,VALID,1,VALID,0,
2013-04-04, 10:50:04,VALID,917.519,VALID,0,VALID,91.9308,VALID,256.892,VALID,22.0437,VALID,312,VALID,0,
2013-04-04, 10:51:04,VALID,917.525,VALID,0,VALID,92.007,VALID,259.47,VALID,21.9444,VALID,24,VALID,0,
2013-04-04, 10:52:04,VALID,917.493,VALID,0,VALID,92.0527,VALID,254.313,VALID,21.8876,VALID,355,VALID,0,
2013-04-04, 10:53:04,VALID,917.447,VALID,0,VALID,92.4644,VALID,255.173,VALID,21.79,VALID,34,VALID,0,
2013-04-04, 10:54:04,VALID,917.46,VALID,0,VALID,93.303,VALID,232.503,VALID,21.7493,VALID,29,VALID,0,
2013-04-04, 10:55:04,VALID,917.417,VALID,0,VALID,93.6613,VALID,201.022,VALID,21.7103,VALID,177,VALID,0,
2013-04-04, 10:56:04,VALID,917.38,VALID,0,VALID,93.768,VALID,193.931,VALID,21.6924,VALID,110,VALID,0,
2013-04-04, 10:57:04,VALID,917.43,VALID,0,VALID,94.1568,VALID,191.46,VALID,21.751,VALID,359,VALID,0,
2013-04-04, 10:58:04,VALID,917.443,VALID,0.2,VALID,94.1721,VALID,207.147,VALID,21.7298,VALID,220,VALID,0,
2013-04-04, 10:59:04,VALID,917.43,VALID,0,VALID,93.6613,VALID,230.569,VALID,21.6339,VALID,15,VALID,0,
2013-04-04, 11:00:04,VALID,917.47,VALID,0.2,VALID,94.2407,VALID,231.428,VALID,21.712,VALID,344,VALID,0,
2013-04-04, 11:01:04,VALID,917.451,VALID,0.2,VALID,93.8824,VALID,216.601,VALID,21.6746,VALID,286,VALID,0,
2013-04-04, 11:02:04,VALID,917.447,VALID,0,VALID,93.8595,VALID,219.073,VALID,21.6356,VALID,104,VALID,0,
2013-04-04, 11:03:04,VALID,917.464,VALID,0.4,VALID,93.89,VALID,214.453,VALID,21.6356,VALID,296,VALID,0,
2013-04-04, 11:04:04,VALID,917.474,VALID,0,VALID,93.7909,VALID,207.361,VALID,21.5559,VALID,221,VALID,0,
2013-04-04, 11:05:04,VALID,917.474,VALID,0.2,VALID,94.0653,VALID,205.213,VALID,21.5754,VALID,229,VALID,0,
2013-04-04, 11:06:04,VALID,917.473,VALID,0.4,VALID,94.0577,VALID,216.601,VALID,21.5363,VALID,235,VALID,0,
2013-04-04, 11:07:04,VALID,917.472,VALID,0.2,VALID,94.0501,VALID,240.883,VALID,21.4794,VALID,252,VALID,0,
2013-04-04, 11:08:04,VALID,917.442,VALID,0.2,VALID,94.2407,VALID,232.288,VALID,21.4404,VALID,266,VALID,0,
2013-04-04, 11:09:04,VALID,917.447,VALID,0.2,VALID,94.3321,VALID,187.377,VALID,21.4193,VALID,298,VALID,0,
2013-04-04, 11:10:04,VALID,917.459,VALID,0,VALID,94.7133,VALID,160.087,VALID,21.499,VALID,355,VALID,0,
2013-04-04, 11:11:04,VALID,917.452,VALID,0,VALID,95.003,VALID,154.393,VALID,21.538,VALID,217,VALID,0,
2013-04-04, 11:12:04,VALID,917.425,VALID,0.2,VALID,94.9115,VALID,176.311,VALID,21.499,VALID,238,VALID,0,
2013-04-04, 11:13:04,VALID,917.447,VALID,0.2,VALID,95.064,VALID,241.957,VALID,21.4973,VALID,195,VALID,0,
2013-04-04, 11:14:04,VALID,917.419,VALID,0,VALID,95.3537,VALID,290.306,VALID,21.577,VALID,219,VALID,0,
2013-04-04, 11:15:04,VALID,917.366,VALID,0.2,VALID,95.5367,VALID,358.639,VALID,21.6746,VALID,345,VALID,0,